TimePDT,TemperatureF,Dew PointF,Humidity,Sea Level PressureIn,VisibilityMPH,Wind Direction,Wind SpeedMPH,Gust SpeedMPH,PrecipitationIn,Events,Conditions,WindDirDegrees,DateUTC
12:56 AM,84.9,28.0,13,29.83,10.0,Calm,Calm,-,N/A,,Unknown,0,2013-08-01 07:56:00
1:56 AM,84.0,32.0,15,29.82,10.0,Calm,Calm,-,N/A,,Unknown,0,2013-08-01 08:56:00
2:56 AM,82.9,30.9,15,29.81,10.0,NE,3.5,-,N/A,,Unknown,40,2013-08-01 09:56:00
3:56 AM,77.0,43.0,30,29.80,10.0,Calm,Calm,-,N/A,,Unknown,0,2013-08-01 10:56:00
4:56 AM,79.0,41.0,26,29.81,10.0,Calm,Calm,-,N/A,,Unknown,0,2013-08-01 11:56:00
5:56 AM,77.0,45.0,32,29.83,10.0,Calm,Calm,-,N/A,,Scattered Clouds,0,2013-08-01 12:56:00
6:56 AM,80.1,46.9,31,29.85,10.0,East,3.5,-,N/A,,Scattered Clouds,80,2013-08-01 13:56:00
7:56 AM,89.1,55.0,31,29.86,10.0,Calm,Calm,-,N/A,,Scattered Clouds,0,2013-08-01 14:56:00
8:56 AM,95.0,30.0,10,29.86,10.0,ENE,3.5,-,N/A,,Partly Cloudy,70,2013-08-01 15:56:00
9:56 AM,98.1,33.1,10,29.86,10.0,NE,4.6,-,N/A,,Partly Cloudy,40,2013-08-01 16:56:00
10:56 AM,100.0,36.0,11,29.85,10.0,Calm,Calm,-,N/A,,Partly Cloudy,0,2013-08-01 17:56:00
11:56 AM,102.9,34.0,9,29.84,10.0,Calm,Calm,-,N/A,,Partly Cloudy,0,2013-08-01 18:56:00
12:56 PM,105.1,35.1,9,29.82,10.0,Variable,3.5,-,N/A,,Partly Cloudy,0,2013-08-01 19:56:00
1:56 PM,106.0,34.0,8,29.79,10.0,ESE,5.8,-,N/A,,Partly Cloudy,120,2013-08-01 20:56:00
2:56 PM,108.0,39.0,10,29.76,10.0,SE,4.6,-,N/A,,Partly Cloudy,140,2013-08-01 21:56:00
3:56 PM,109.0,42.1,10,29.73,10.0,SE,5.8,-,N/A,,Partly Cloudy,140,2013-08-01 22:56:00
4:56 PM,109.0,39.9,10,29.70,10.0,ESE,4.6,-,N/A,,Partly Cloudy,110,2013-08-01 23:56:00
5:56 PM,109.0,28.9,6,29.70,9.0,West,19.6,-,N/A,,Partly Cloudy,260,2013-08-02 00:56:00
6:56 PM,104.0,35.1,9,29.71,10.0,WSW,12.7,-,N/A,,Partly Cloudy,240,2013-08-02 01:56:00
7:56 PM,97.0,39.9,14,29.73,10.0,SW,8.1,-,N/A,,Scattered Clouds,220,2013-08-02 02:56:00
8:56 PM,93.0,39.9,16,29.75,10.0,WSW,5.8,-,N/A,,Scattered Clouds,250,2013-08-02 03:56:00
9:56 PM,91.0,39.0,16,29.77,10.0,West,10.4,-,N/A,,Scattered Clouds,260,2013-08-02 04:56:00
10:56 PM,90.0,37.0,15,29.77,10.0,West,16.1,-,N/A,,Scattered Clouds,260,2013-08-02 05:56:00
11:56 PM,87.1,37.9,18,29.78,10.0,West,8.1,-,N/A,,Unknown,270,2013-08-02 06:56:00